Find Starlink 11108

NORAD ID: 59712 Int'l Des: 2024-088 Owner: SPXS Country: US Constellation: starlink operational
LEOCIRCULAR

Live Position

Loading 3D Globe...

About Starlink 11108

Description loading...

Upcoming Passes

Passes for default location (London). Set your location on the main map for personalized predictions.

Altitude History

Loading altitude history...

Two-Line Element Set

1 59712U 24088E 26125.50350479 .00005979 00000-0 54134-4 0 9996
2 59712 53.1578 46.3358 0000889 102.2666 257.8452 15.69726881115195
Epoch: May 5, 2026 • Age: 11 hours

Current Status

Altitude 359.9 km
Velocity 7.70 km/s
Sub-Earth Point 21.93°N, 8.68°W
Launch Date May 10, 2024
Age 1.9 years
Type internet

Technical Details

Classification Payload
Mass 960.00 kg
Dry Mass 910.00 kg
Total Mass 960.00 kg
Length 0.30 m
Diameter 4.10 m
Span 29.00 m
Shape Box + pan
Manufacturer SPXS
Bus Type Starlink V2MD
Phase Status In Orbit
Owner/State SPXS/US

Most Searched